ファン・ネス彗星

213P/Van Ness (2023)

English version
Home page
Updated on January 10, 2025

---------------------------------------------------------------------

・ プロフィール

・ 軌道要素

Epoch 2023 Oct. 23.0 TT = JDT 2460240.5
T 2023 Nov. 11.50194 TT                                 MPCW
q   1.9801720            (2000.0)            P               Q
n   0.16114841     Peri.    5.77380     +0.73066118     +0.66917442
a   3.3444037      Node   311.27201     -0.63339156     +0.59033880
e   0.4079148      Incl.   10.38054     -0.25485166     +0.45133768
P   6.12
From 2242 observations 2011 Apr. 5-2018 Dec. 10, mean residual 0".6.
     Nongravitational parameters A1 = +2.54, A2 = -0.9837, A3 = -0.4598.

・ 星図

・ 光度変化

        m1 = 14.5 + 5 logΔ + 10.0 log r(t - 200)

        ※ 灰色の曲線は、m1 = 6.0 + 5 logΔ + 25.0 log r の光度曲線です。

---------------------------------------------------------------------

軌道要素はM.P.E.C. 2019-J142に掲載されたものです。
星図はステラナビゲータ Ver.11 (アストロアーツ) で作成したものです。
光度グラフはComet for Windowsで作成したものです。

---------------------------------------------------------------------

Copyright(C) Seiichi Yoshida (comet@aerith.net). All rights reserved.